IW2NIA-3 Weather Reports


Display with metric or nautical units.
time (UTC)temp
F
wind
direction
speed
MPH
gust
MPH
rain 1hr
in
rain 24hr
in
rain mn
in
humidity
%
barometer
mb
20260902143345 86 289 0.0 5.0 0.00 0.00 0.00 49 1016.8
20260902141836 86 277 4.0 6.0 0.00 0.00 0.00 53 1016.8
20260902140349 86 200 3.0 7.0 0.00 0.00 0.00 54 1016.9
20260902134847 86 223 1.0 5.0 0.00 0.00 0.00 54 1017.1
20260902133338 85 225 2.0 6.0 0.00 0.00 0.00 58 1017.0
20260902131830 85 336 3.0 6.0 0.00 0.00 0.00 56 1017.3
20260902130347 85 217 4.0 6.0 0.00 0.00 0.00 54 1017.5
20260902124843 84 239 1.0 7.0 0.00 0.00 0.00 59 1017.6
20260902123342 84 259 4.0 7.0 0.00 0.00 0.00 58 1017.8
20260902121830 84 300 1.0 6.0 0.00 0.00 0.00 60 1018.0
20260902120334 84 348 4.0 7.0 0.00 0.00 0.00 60 1018.1
20260902114849 83 161 2.0 7.0 0.00 0.00 0.00 60 1018.3
20260902113346 83 273 2.0 4.0 0.00 0.00 0.00 64 1018.4
20260902111845 82 203 2.0 7.0 0.00 0.00 0.00 63 1018.5
20260902110340 82 259 0.0 6.0 0.00 0.00 0.00 62 1018.7
20260902104831 81 290 1.0 6.0 0.00 0.00 0.00 63 1018.8
20260902103328 81 249 4.0 7.0 0.00 0.00 0.00 62 1018.9
20260902101836 81 204 4.0 6.0 0.00 0.00 0.00 66 1019.1
20260902100349 80 128 3.0 6.0 0.00 0.00 0.00 64 1019.1
20260902094841 80 58 2.0 4.0 0.00 0.00 0.00 66 1019.2
20260902093340 79 210 2.0 3.0 0.00 0.00 0.00 66 1019.4
20260902091839 79 144 3.0 7.0 0.00 0.00 0.00 67 1019.3
20260902090331 79 79 1.0 5.0 0.00 0.00 0.00 68 1019.3
20260902084846 78 136 5.0 9.0 0.00 0.00 0.00 68 1019.3
20260902083340 77 138 3.0 8.0 0.00 0.00 0.00 69 1019.2
20260902081840 77 142 6.0 9.0 0.00 0.00 0.00 70 1019.3
20260902080335 77 116 3.0 6.0 0.00 0.00 0.00 72 1019.2
20260902074829 77 109 4.0 6.0 0.00 0.00 0.00 73 1019.0
20260902073348 76 144 3.0 5.0 0.00 0.00 0.00 74 1019.2
20260902071844 76 157 1.0 3.0 0.00 0.00 0.00 76 1019.1
20260902070343 75 108 1.0 6.0 0.00 0.00 0.00 77 1018.9
20260902064841 74 134 3.0 5.0 0.00 0.00 0.00 78 1018.8
20260902063336 73 96 4.0 6.0 0.00 0.00 0.00 80 1018.7
20260902061831 72 96 3.0 4.0 0.00 0.00 0.00 81 1018.7
20260902060345 71 88 4.0 6.0 0.00 0.00 0.00 84 1018.7
20260902054842 70 74 1.0 4.0 0.00 0.00 0.00 85 1018.4
20260902053332 69 63 1.0 3.0 0.00 0.00 0.00 86 1018.5
20260902051847 69 71 0.0 1.0 0.00 0.00 0.00 86 1018.3
20260902050343 69 69 0.0 0.0 0.00 0.00 0.00 86 1018.3
20260902044847 69 69 0.0 3.0 0.00 0.00 0.00 86 1018.3
20260902043338 69 69 2.0 4.0 0.00 0.00 0.00 85 1018.3
20260902041832 69 71 2.0 3.0 0.00 0.00 0.00 85 1018.0
20260902040349 69 65 0.0 3.0 0.00 0.00 0.00 86 1017.9
20260902034841 69 65 2.0 3.0 0.00 0.00 0.00 85 1017.9
20260902033331 69 66 2.0 4.0 0.00 0.00 0.00 85 1018.1
20260902031843 69 59 1.0 4.0 0.00 0.00 0.00 85 1018.1
20260902030337 69 61 0.0 1.0 0.00 0.00 0.00 84 1018.2
20260902024836 70 61 2.0 4.0 0.00 0.00 0.00 84 1018.1
20260902023331 70 62 0.0 0.0 0.00 0.00 0.00 84 1018.1
20260902021847 70 69 0.0 0.0 0.00 0.00 0.00 84 1018.0
20260902020342 70 69 2.0 5.0 0.00 0.00 0.00 84 1018.0
20260902014838 70 70 2.0 3.0 0.00 0.00 0.00 84 1017.9
20260901233331 71 65 0.0 0.0 0.00 0.00 0.00 82 1017.9
20260901231841 71 65 0.0 0.0 0.00 0.00 0.00 82 1018.0
20260901230349 71 65 0.0 0.0 0.00 0.00 0.00 82 1018.1
20260901224837 72 65 0.0 0.0 0.00 0.00 0.00 81 1018.0
20260901223335 72 65 0.0 0.0 0.00 0.00 0.00 81 1018.0
20260901221835 72 65 0.0 1.0 0.00 0.00 0.00 82 1018.1
20260901220331 72 65 0.0 2.0 0.00 0.00 0.00 81 1017.9
20260901214843 72 65 0.0 0.0 0.00 0.00 0.00 80 1017.9
20260901213331 72 65 2.0 3.0 0.00 0.00 0.00 80 1017.9
20260901211845 73 65 2.0 3.0 0.00 0.00 0.00 79 1017.8
20260901210328 73 65 2.0 3.0 0.00 0.00 0.00 79 1017.8
20260901204831 74 65 2.0 3.0 0.00 0.00 0.00 78 1017.8
20260901203341 74 65 1.0 3.0 0.00 0.00 0.00 77 1017.9
20260901201834 74 136 0.0 0.0 0.00 0.00 0.00 78 1017.8
20260901194833 75 136 0.0 0.0 0.00 0.00 0.00 77 1017.6
20260901193329 75 136 0.0 0.0 0.00 0.00 0.00 77 1017.4
20260901191829 76 136 0.0 0.0 0.00 0.00 0.00 76 1017.3
20260901190339 77 171 0.0 0.0 0.00 0.00 0.00 76 1017.1
20260901184834 77 171 0.0 0.0 0.00 0.00 0.00 75 1016.9
20260901183332 78 171 0.0 0.0 0.00 0.00 0.00 74 1016.9
20260901181843 78 171 0.0 0.0 0.00 0.00 0.00 72 1016.7
20260901180338 80 171 0.0 0.0 0.00 0.00 0.00 69 1016.6
20260901174833 81 171 1.0 2.0 0.00 0.00 0.00 65 1016.6
20260901173337 81 171 0.0 2.0 0.00 0.00 0.00 63 1016.5
20260901171828 82 221 0.0 2.0 0.00 0.00 0.00 61 1016.3
20260901170340 82 221 0.0 2.0 0.00 0.00 0.00 60 1016.3
20260901164837 83 222 1.0 4.0 0.00 0.00 0.00 60 1016.4
20260901163346 84 223 1.0 3.0 0.00 0.00 0.00 57 1016.4
20260901161843 85 223 2.0 5.0 0.00 0.00 0.00 56 1016.5
20260901160341 85 209 3.0 5.0 0.00 0.00 0.00 55 1016.5
20260901154836 84 111 3.0 5.0 0.00 0.00 0.00 57 1016.5
20260901153333 85 154 1.0 6.0 0.00 0.00 0.00 57 1016.5
20260901151832 85 235 3.0 6.0 0.00 0.00 0.00 56 1016.5
20260901150344 85 234 3.0 5.0 0.00 0.00 0.00 54 1016.6
20260901144830 85 251 3.0 10.0 0.00 0.00 0.00 56 1016.8